When you browse on this site, cookies collect data to enhance your experience and personalize the content and advertising you see.
Visit our Privacy Policy to learn more. By continuing to use the site, you agree to this use of cookies and data.
  • En España
  • Lista de países
  • Para 7 días
  • Temperatura del agua
  • El tiempo en el mapa
  • Informadores
  • user-avatar
    Iniciar sesión

    Tiempo cada hora Llaillay

    Hoy, 23 Enero, Jueves

    Tiempo Temperatura Precipitaciones Viento Presión Humedad
    00:00 +15°C° 0 mm 0 mps 727 mmHg 90%
    01:00 +15°C° 0 mm 0 mps 726 mmHg 91%
    02:00 +15°C° 0 mm 0 mps 726 mmHg 92%
    03:00 +15°C° 0 mm 0 mps 727 mmHg 92%
    04:00 +15°C° 0 mm 0 mps 727 mmHg 92%
    05:00 +17°C° 0 mm 0 mps 727 mmHg 87%
    06:00 +21°C° 0 mm 1 mps 728 mmHg 81%
    07:00 +22°C° 0 mm 1 mps 728 mmHg 76%
    08:00 +24°C° 0 mm 2 mps 728 mmHg 69%
    09:00 +26°C° 0 mm 2 mps 729 mmHg 62%
    10:00 +27°C° 0 mm 2 mps 729 mmHg 55%
    11:00 +29°C° 0 mm 3 mps 729 mmHg 50%
    12:00 +30°C° 0 mm 3 mps 729 mmHg 45%
    13:00 +33°C° 0 mm 4 mps 729 mmHg 40%
    14:00 +32°C° 0 mm 4 mps 729 mmHg 40%
    15:00 +32°C° 0 mm 4 mps 729 mmHg 40%
    16:00 +30°C° 0 mm 4 mps 729 mmHg 41%
    17:00 +27°C° 0 mm 3 mps 728 mmHg 52%
    18:00 +24°C° 0 mm 2 mps 728 mmHg 64%
    19:00 +20°C° 0 mm 1 mps 728 mmHg 75%
    20:00 +20°C° 0 mm 1 mps 728 mmHg 78%
    21:00 +17°C° 0 mm 0 mps 728 mmHg 81%
    22:00 +16°C° 0 mm 0 mps 728 mmHg 84%
    23:00 +16°C° 0 mm 0 mps 728 mmHg 85%

    Mañana, 24 Enero, Viernes

    Tiempo Temperatura Precipitaciones Viento Presión Humedad
    00:00 +15°C° 0 mm 0 mps 727 mmHg 85%
    01:00 +15°C° 0 mm 0 mps 727 mmHg 86%
    02:00 +15°C° 0 mm 0 mps 727 mmHg 86%
    03:00 +15°C° 0 mm 0 mps 727 mmHg 86%
    04:00 +15°C° 0 mm 0 mps 727 mmHg 86%
    05:00 +17°C° 0 mm 0 mps 727 mmHg 75%
    06:00 +20°C° 0 mm 0 mps 728 mmHg 65%
    07:00 +23°C° 0 mm 0 mps 729 mmHg 54%
    08:00 +27°C° 0 mm 1 mps 729 mmHg 48%
    09:00 +29°C° 0 mm 2 mps 729 mmHg 42%
    10:00 +31°C° 0 mm 3 mps 729 mmHg 36%
    11:00 +33°C° 0 mm 3 mps 729 mmHg 35%
    12:00 +34°C° 0 mm 4 mps 729 mmHg 33%
    13:00 +35°C° 0 mm 4 mps 728 mmHg 32%
    14:00 +34°C° 0 mm 4 mps 728 mmHg 34%
    15:00 +33°C° 0 mm 4 mps 728 mmHg 35%
    16:00 +32°C° 0 mm 4 mps 728 mmHg 37%
    17:00 +28°C° 0 mm 3 mps 728 mmHg 49%
    18:00 +24°C° 0 mm 2 mps 728 mmHg 60%
    19:00 +21°C° 0 mm 1 mps 728 mmHg 72%
    20:00 +19°C° 0 mm 1 mps 728 mmHg 76%
    21:00 +16°C° 0 mm 0 mps 728 mmHg 79%
    22:00 +15°C° 0 mm 0 mps 728 mmHg 83%
    23:00 +15°C° 0 mm 0 mps 727 mmHg 83%

    Pasado mañana, 25 Enero, Sábado

    Tiempo Temperatura Precipitaciones Viento Presión Humedad
    00:00 +14°C° 0 mm 0 mps 727 mmHg 83%
    01:00 +14°C° 0 mm 0 mps 726 mmHg 83%
    02:00 +14°C° 0 mm 0 mps 726 mmHg 83%
    03:00 +14°C° 0 mm 0 mps 726 mmHg 83%
    04:00 +13°C° 0 mm 0 mps 726 mmHg 83%
    05:00 +17°C° 0 mm 0 mps 727 mmHg 72%
    06:00 +20°C° 0 mm 0 mps 727 mmHg 60%
    07:00 +24°C° 0 mm 0 mps 728 mmHg 48%
    08:00 +28°C° 0 mm 1 mps 728 mmHg 42%
    09:00 +31°C° 0 mm 2 mps 728 mmHg 36%
    10:00 +34°C° 0 mm 2 mps 728 mmHg 29%
    11:00 +35°C° 0 mm 3 mps 728 mmHg 28%
    12:00 +35°C° 0 mm 4 mps 728 mmHg 27%
    13:00 +36°C° 0 mm 4 mps 728 mmHg 26%
    14:00 +35°C° 0 mm 4 mps 728 mmHg 27%
    15:00 +35°C° 0 mm 4 mps 728 mmHg 28%
    16:00 +34°C° 0 mm 4 mps 727 mmHg 29%
    17:00 +29°C° 0 mm 3 mps 727 mmHg 40%
    18:00 +25°C° 0 mm 2 mps 727 mmHg 50%
    19:00 +21°C° 0 mm 1 mps 727 mmHg 61%
    20:00 +19°C° 0 mm 1 mps 727 mmHg 66%
    21:00 +16°C° 0 mm 0 mps 727 mmHg 70%
    22:00 +14°C° 0 mm 0 mps 727 mmHg 75%
    23:00 +15°C° 0 mm 0 mps 727 mmHg 74%

    26 Enero, Domingo

    Tiempo Temperatura Precipitaciones Viento Presión Humedad
    00:00 +15°C° 0 mm 0 mps 727 mmHg 73%
    01:00 +15°C° 0 mm 0 mps 726 mmHg 72%
    02:00 +15°C° 0 mm 0 mps 726 mmHg 71%
    03:00 +16°C° 0 mm 0 mps 727 mmHg 69%
    04:00 +16°C° 0 mm 0 mps 727 mmHg 68%
    05:00 +18°C° 0 mm 0 mps 727 mmHg 59%
    06:00 +23°C° 0 mm 1 mps 728 mmHg 50%
    07:00 +25°C° 0 mm 1 mps 729 mmHg 41%
    08:00 +28°C° 0 mm 1 mps 729 mmHg 36%
    09:00 +30°C° 0 mm 2 mps 729 mmHg 31%
    10:00 +34°C° 0 mm 2 mps 729 mmHg 25%
    11:00 +34°C° 0 mm 3 mps 729 mmHg 24%
    12:00 +35°C° 0 mm 3 mps 729 mmHg 23%
    13:00 +36°C° 0 mm 4 mps 729 mmHg 21%
    14:00 +35°C° 0 mm 4 mps 729 mmHg 23%
    15:00 +34°C° 0 mm 4 mps 729 mmHg 25%
    16:00 +34°C° 0 mm 4 mps 728 mmHg 27%
    17:00 +29°C° 0 mm 3 mps 728 mmHg 41%
    18:00 +25°C° 0 mm 2 mps 728 mmHg 54%
    19:00 +21°C° 0 mm 1 mps 728 mmHg 68%
    20:00 +20°C° 0 mm 1 mps 728 mmHg 71%
    21:00 +16°C° 0 mm 0 mps 728 mmHg 74%
    22:00 +15°C° 0 mm 0 mps 728 mmHg 78%
    23:00 +15°C° 0 mm 0 mps 728 mmHg 77%

    27 Enero, Lunes

    Tiempo Temperatura Precipitaciones Viento Presión Humedad
    00:00 +15°C° 0 mm 0 mps 727 mmHg 77%
    01:00 +15°C° 0 mm 0 mps 727 mmHg 76%
    02:00 +15°C° 0 mm 0 mps 727 mmHg 76%
    03:00 +15°C° 0 mm 0 mps 727 mmHg 76%
    04:00 +14°C° 0 mm 0 mps 727 mmHg 76%
    05:00 +18°C° 0 mm 0 mps 727 mmHg 65%
    06:00 +21°C° 0 mm 0 mps 728 mmHg 53%
    07:00 +25°C° 0 mm 0 mps 728 mmHg 41%
    08:00 +29°C° 0 mm 1 mps 728 mmHg 38%
    09:00 +31°C° 0 mm 2 mps 729 mmHg 34%
    10:00 +34°C° 0 mm 3 mps 729 mmHg 31%
    11:00 +34°C° 0 mm 3 mps 729 mmHg 30%
    12:00 +35°C° 0 mm 4 mps 728 mmHg 29%
    13:00 +35°C° 0 mm 4 mps 728 mmHg 29%
    14:00 +35°C° 0 mm 4 mps 728 mmHg 31%
    15:00 +34°C° 0 mm 4 mps 728 mmHg 32%
    16:00 +33°C° 0 mm 4 mps 728 mmHg 34%
    17:00 +28°C° 0 mm 3 mps 728 mmHg 46%
    18:00 +25°C° 0 mm 2 mps 727 mmHg 58%
    19:00 +21°C° 0 mm 1 mps 727 mmHg 71%
    20:00 +20°C° 0 mm 1 mps 727 mmHg 75%
    21:00 +16°C° 0 mm 0 mps 727 mmHg 79%
    22:00 +15°C° 0 mm 0 mps 727 mmHg 84%
    23:00 +15°C° 0 mm 0 mps 727 mmHg 83%

    28 Enero, Martes

    Tiempo Temperatura Precipitaciones Viento Presión Humedad
    00:00 +15°C° 0 mm 0 mps 726 mmHg 82%
    01:00 +14°C° 0 mm 0 mps 726 mmHg 82%
    02:00 +14°C° 0 mm 0 mps 726 mmHg 81%
    03:00 +14°C° 0 mm 0 mps 725 mmHg 81%
    04:00 +14°C° 0 mm 0 mps 725 mmHg 81%
    05:00 +17°C° 0 mm 0 mps 726 mmHg 70%
    06:00 +22°C° 0 mm 1 mps 726 mmHg 59%
    07:00 +25°C° 0 mm 1 mps 727 mmHg 48%
    08:00 +27°C° 0 mm 2 mps 727 mmHg 43%
    09:00 +29°C° 0 mm 2 mps 727 mmHg 38%
    10:00 +31°C° 0 mm 3 mps 728 mmHg 33%
    11:00 +33°C° 0 mm 3 mps 728 mmHg 31%
    12:00 +33°C° 0 mm 4 mps 728 mmHg 29%
    13:00 +34°C° 0 mm 4 mps 727 mmHg 27%
    14:00 +33°C° 0 mm 4 mps 727 mmHg 27%
    15:00 +33°C° 0 mm 4 mps 727 mmHg 27%
    16:00 +32°C° 0 mm 4 mps 727 mmHg 27%
    17:00 +27°C° 0 mm 3 mps 727 mmHg 39%
    18:00 +23°C° 0 mm 2 mps 727 mmHg 50%
    19:00 +19°C° 0 mm 1 mps 727 mmHg 62%
    20:00 +18°C° 0 mm 1 mps 726 mmHg 67%
    21:00 +16°C° 0 mm 1 mps 726 mmHg 72%
    22:00 +13°C° 0 mm 0 mps 726 mmHg 77%
    23:00 +13°C° 0 mm 0 mps 726 mmHg 77%
    Mostrar más